Date String (YYYY-MM-DD hh:mm:ss) UTC,Instrument flags,Ambient pressure (hPa),Sample flow (lpm),Bypass flow (lpm),Sample temperature (°C),Ambient temperature (°C),ASC tube jacket temperature (°C),LED temperature (°C),Box temperature (°C),Sample RH (%),Span deviation,Mass concentration (μg/m³),Mass concentration (μg/m³),Mass concentration (μg/m³)
DateTimeUTC,F1_M11,P_M11,Q1_M11,Q2_M11,T1_M11,T2_M11,T3_M11,T4_M11,T5_M11,U1_M11,ZSPAN_M11,X0_M11,X2_M11,X1_M11
2022-05-29 20:00:00,,0809.7,4.99,0.00,29.6,28.6,00.0,38.4,31.5,17.5,0000.0,0011.46,0004.04,0002.11
2022-05-29 20:01:00,,0809.7,5.00,0.00,29.6,28.7,00.0,38.5,31.5,17.8,0000.0,0010.88,0003.96,0002.10
2022-05-29 20:02:00,,0809.7,5.01,0.00,29.6,28.7,00.0,38.5,31.5,18.9,0000.0,0009.84,0003.90,0002.10
2022-05-29 20:03:00,,0809.7,5.00,0.00,29.6,28.7,00.0,38.5,31.5,18.8,0000.0,0009.92,0003.93,0002.11
2022-05-29 20:04:00,,0809.6,5.00,0.00,29.7,28.8,00.0,38.5,31.6,17.9,0000.0,0010.13,0004.02,0002.12
2022-05-29 20:05:00,,0809.6,4.99,0.00,29.7,28.8,00.0,38.5,31.6,17.1,0000.0,0009.97,0004.04,0002.15
2022-05-29 20:06:00,,0809.6,5.00,0.00,29.7,28.8,00.0,38.5,31.6,17.2,0000.0,0010.11,0004.05,0002.14
2022-05-29 20:07:00,,0809.7,5.01,0.00,29.7,28.8,00.0,38.5,31.6,17.4,0000.0,0010.65,0004.05,0002.15
2022-05-29 20:08:00,,0809.6,5.00,0.00,29.7,28.8,00.0,38.6,31.6,17.9,0000.0,0010.79,0004.05,0002.16
2022-05-29 20:09:00,,0809.7,5.00,0.00,29.8,28.9,00.0,38.6,31.7,18.4,0000.0,0011.15,0004.01,0002.17
2022-05-29 20:10:00,,0809.7,5.00,0.00,29.8,28.9,00.0,38.6,31.7,18.5,0000.0,0010.69,0004.00,0002.18
2022-05-29 20:11:00,,0809.7,5.00,0.00,29.8,28.9,00.0,38.6,31.7,18.4,0000.0,0010.26,0003.95,0002.18
2022-05-29 20:12:00,,0809.7,5.00,0.00,29.8,28.9,00.0,38.6,31.7,18.2,0000.0,0010.14,0003.93,0002.17
2022-05-29 20:13:00,,0809.8,5.00,0.00,29.8,29.0,00.0,38.6,31.7,18.0,0000.0,0010.22,0003.93,0002.16
2022-05-29 20:14:00,,0809.8,4.99,0.00,29.8,29.0,00.0,38.7,31.7,18.2,0000.0,0010.60,0003.90,0002.15
2022-05-29 20:15:00,,0809.9,5.01,0.00,29.8,28.4,00.0,38.6,31.6,18.1,0000.0,0010.34,0003.84,0002.15
2022-05-29 20:16:00,,0809.9,5.00,0.00,29.7,27.6,00.0,38.6,31.3,18.8,0000.0,0010.28,0003.83,0002.12
2022-05-29 20:17:00,,0809.8,5.00,0.00,29.7,27.4,00.0,38.5,31.3,19.3,0000.0,0010.16,0003.81,0002.12
2022-05-29 20:18:00,,0809.9,5.00,0.00,29.6,27.4,00.0,38.5,31.2,18.8,0000.0,0009.70,0003.84,0002.14
2022-05-29 20:19:00,,0809.9,4.99,0.00,29.5,27.5,00.0,38.5,31.2,19.2,0000.0,0009.75,0003.88,0002.14
2022-05-29 20:20:00,,0809.9,5.00,0.00,29.5,27.6,00.0,38.5,31.3,18.6,0000.0,0009.71,0003.88,0002.13
2022-05-29 20:21:00,,0809.9,4.98,0.00,29.5,27.8,00.0,38.5,31.3,18.4,0000.0,0009.85,0003.90,0002.13
2022-05-29 20:22:00,,0809.9,5.01,0.00,29.5,27.9,00.0,38.5,31.3,18.4,0000.0,0010.04,0003.93,0002.11
2022-05-29 20:23:00,,0810.0,4.99,0.00,29.5,28.0,00.0,38.5,31.3,19.1,0000.0,0010.18,0003.92,0002.11
2022-05-29 20:24:00,,0810.2,5.01,0.00,29.5,28.1,00.0,38.5,31.3,19.5,0000.0,0010.60,0003.95,0002.10
2022-05-29 20:25:00,,0810.3,5.00,0.00,29.5,28.2,00.0,38.5,31.4,18.7,0000.0,0010.54,0003.97,0002.10
2022-05-29 20:26:00,,0810.4,5.00,0.00,29.5,28.3,00.0,38.5,31.4,18.5,0000.0,0011.11,0003.98,0002.11
2022-05-29 20:27:00,,0810.6,5.01,0.00,29.5,28.4,00.0,38.5,31.4,18.4,0000.0,0011.84,0004.01,0002.12
2022-05-29 20:28:00,,0810.7,4.99,0.00,29.5,28.4,00.0,38.5,31.4,18.5,0000.0,0011.99,0003.99,0002.12
2022-05-29 20:29:00,,0810.8,4.99,0.00,29.6,28.4,00.0,38.5,31.4,18.7,0000.0,0012.38,0003.99,0002.12
2022-05-29 20:30:00,,0810.8,5.00,0.00,29.6,28.5,00.0,38.5,31.4,18.7,0000.0,0012.55,0003.97,0002.12
2022-05-29 20:31:00,,0810.8,5.01,0.00,29.6,28.5,00.0,38.5,31.4,19.7,0000.0,0012.52,0004.02,0002.14
2022-05-29 20:32:00,,0810.9,5.01,0.00,29.6,28.5,00.0,38.5,31.4,20.0,0000.0,0012.20,0004.08,0002.17
2022-05-29 20:33:00,,0810.9,4.99,0.00,29.6,28.5,00.0,38.5,31.4,20.3,0000.0,0012.17,0004.10,0002.20
2022-05-29 20:34:00,,0811.0,5.00,0.00,29.6,28.5,00.0,38.5,31.5,20.0,0000.0,0012.18,0004.14,0002.22
2022-05-29 20:35:00,,0810.9,5.00,0.00,29.6,28.5,00.0,38.5,31.5,19.7,0000.0,0011.99,0004.15,0002.23
2022-05-29 20:36:00,,0810.9,5.00,0.00,29.6,28.5,00.0,38.5,31.5,18.5,0000.0,0012.59,0004.10,0002.21
2022-05-29 20:37:00,,0810.7,5.00,0.00,29.6,28.5,00.0,38.5,31.5,17.5,0000.0,0011.91,0003.99,0002.13
2022-05-29 20:38:00,,0810.8,5.01,0.00,29.6,28.5,00.0,38.5,31.5,16.3,0000.0,0011.10,0003.84,0002.00
2022-05-29 20:39:00,,0810.8,5.00,0.00,29.6,28.5,00.0,38.5,31.5,16.2,0000.0,0010.68,0003.73,0001.87
2022-05-29 20:40:00,,0810.8,4.98,0.00,29.6,28.5,00.0,38.5,31.5,16.1,0000.0,0009.94,0003.54,0001.71
2022-05-29 20:41:00,,0810.9,5.00,0.00,29.6,28.5,00.0,38.5,31.4,16.2,0000.0,0009.30,0003.35,0001.56
2022-05-29 20:42:00,,0811.0,5.02,0.00,29.6,28.5,00.0,38.5,31.4,16.4,0000.0,0009.31,0003.19,0001.40
2022-05-29 20:43:00,,0811.0,4.99,0.00,29.6,28.5,00.0,38.5,31.4,16.7,0000.0,0009.05,0002.89,0001.22
2022-05-29 20:44:00,,0811.0,5.00,0.00,29.6,28.5,00.0,38.5,31.4,16.9,0000.0,0008.83,0002.55,0001.05
2022-05-29 20:45:00,,0811.0,5.01,0.00,29.6,28.5,00.0,38.5,31.4,17.3,0000.0,0008.39,0002.20,0000.91
2022-05-29 20:46:00,,0811.0,4.99,0.00,29.6,28.5,00.0,38.5,31.4,17.7,0000.0,0008.02,0001.98,0000.78
2022-05-29 20:47:00,,0810.9,5.00,0.00,29.6,28.5,00.0,38.5,31.4,18.1,0000.0,0006.65,0001.89,0000.69
2022-05-29 20:48:00,,0811.0,5.00,0.00,29.6,28.5,00.0,38.6,31.5,18.3,0000.0,0006.76,0001.92,0000.66
2022-05-29 20:49:00,,0811.0,5.02,0.00,29.6,28.5,00.0,38.6,31.4,18.5,0000.0,0007.29,0001.99,0000.67
2022-05-29 20:50:00,,0811.1,5.01,0.00,29.6,28.5,00.0,38.6,31.4,18.5,0000.0,0008.31,0002.17,0000.71
2022-05-29 20:51:00,,0811.2,5.00,0.00,29.6,28.5,00.0,38.6,31.4,19.3,0000.0,0008.60,0002.29,0000.76
2022-05-29 20:52:00,,0811.2,5.00,0.00,29.6,28.5,00.0,38.6,31.4,19.9,0000.0,0008.77,0002.42,0000.82
2022-05-29 20:53:00,,0811.3,4.99,0.00,29.6,28.4,00.0,38.6,31.4,20.3,0000.0,0008.41,0002.48,0000.86
2022-05-29 20:54:00,,0811.3,5.01,0.00,29.6,28.4,00.0,38.6,31.4,20.2,0000.0,0008.37,0002.55,0000.90
2022-05-29 20:55:00,,0811.4,5.00,0.00,29.6,28.4,00.0,38.6,31.4,20.6,0000.0,0008.36,0002.75,0000.97
2022-05-29 20:56:00,,0811.4,4.99,0.00,29.6,28.4,00.0,38.6,31.4,21.1,0000.0,0008.40,0002.86,0001.04
2022-05-29 20:57:00,,0811.4,4.99,0.00,29.6,28.5,00.0,38.6,31.4,20.7,0000.0,0008.56,0003.03,0001.08
2022-05-29 20:58:00,,0811.4,5.00,0.00,29.6,28.5,00.0,38.6,31.4,20.7,0000.0,0008.56,0003.03,0001.12
2022-05-29 20:59:00,,0811.4,5.01,0.00,29.6,28.4,00.0,38.6,31.4,20.7,0000.0,0008.38,0003.01,0001.15
